This is the latest recevied weather packets stored in our database for station/object OK1PMP-6. If no packets are shown the sender has not sent any weather packets the latest 10 day(s).
| Time | Temp. | Humidity | Pressure | Rain* | Wind** | Luminosity | Snow |
|---|---|---|---|---|---|---|---|
| 1777684432 | 2.78° C | 81% | 1028.9 hPa | 0 mm | - | 0 W/m² | - |
| 1777683527 | 3.33° C | 79% | 1029.1 hPa | 0 mm | - | 0 W/m² | - |
| 1777682625 | 4.44° C | 79% | 1028.8 hPa | 0 mm | - | 0 W/m² | - |
| 1777681721 | 3.89° C | 77% | 1029 hPa | 0 mm | - | 0 W/m² | - |
| 1777680819 | 4.44° C | 79% | 1029.1 hPa | 0 mm | - | 0 W/m² | - |
| 1777679921 | 4.44° C | 78% | 1029.2 hPa | 0 mm | - | 0 W/m² | - |
| 1777679011 | 4.44° C | 77% | 1029.2 hPa | 0 mm | - | 0 W/m² | - |
| 1777678703 | 4.44° C | 75% | 1029.5 hPa | 0 mm | - | 0 W/m² | - |
| 1777677204 | 5° C | 74% | 1029.2 hPa | 0 mm | - | 0 W/m² | - |
| 1777676310 | 5.56° C | 72% | 1029.2 hPa | 0 mm | - | 0 W/m² | - |
| 1777675406 | 5.56° C | 72% | 1029.1 hPa | 0 mm | - | 0 W/m² | - |
| 1777674500 | 6.11° C | 70% | 1029.2 hPa | 0 mm | - | 0 W/m² | - |
| 1777673653 | 6.67° C | 69% | 1029.2 hPa | 0 mm | - | 0 W/m² | - |
| 1777672695 | 6.67° C | 69% | 1029.1 hPa | 0 mm | - | 0 W/m² | - |
| 1777671795 | 6.67° C | 68% | 1029.2 hPa | 0 mm | - | 0 W/m² | - |
| 1777670895 | 7.22° C | 66% | 1029.2 hPa | 0 mm | - | 0 W/m² | - |
| 1777669988 | 7.78° C | 65% | 1029.1 hPa | 0 mm | - | 0 W/m² | - |
| 1777669090 | 7.78° C | 63% | 1029.1 hPa | 0 mm | - | 0 W/m² | - |
| 1777668181 | 8.89° C | 60% | 1029 hPa | 0 mm | - | 0 W/m² | - |
| 1777667282 | 9.44° C | 58% | 1029 hPa | 0 mm | - | 0 W/m² | - |
| 1777666369 | 10.56° C | 56% | 1029.2 hPa | 0 mm | - | 0 W/m² | - |
| 1777665464 | 11.11° C | 55% | 1028.9 hPa | 0 mm | - | 0 W/m² | - |
| 1777664581 | 12.78° C | 53% | 1029.1 hPa | 0 mm | - | 0 W/m² | - |
| 1777663785 | 12.22° C | 53% | 1028.8 hPa | 0 mm | - | 0 W/m² | - |
| 1777662753 | 13.33° C | 48% | 1028.7 hPa | 0 mm | - | 0 W/m² | - |
* Rain latest hour (hover to see other rain measurements)
** Current wind speed in m/s (hover to see current wind gust speed)